Terminal Aerodrome Forecast
Issued by NWS Mobile, AL

Home | Current Version | Previous Version | Text Only | Print | Product List | Glossary On
Versions: 1 2 3 4 5 6 7 8 9 10 11 12 13 14 15 16 17 18 19 20 21 22 23 24 25 26 27 28 29 30
000
FTUS44 KMOB 300345 AAA
TAFPNS
TAF AMD
KPNS 300345Z 3004/3024 15007KT P6SM BKN025
     FM300900 17003KT 4SM BR SCT250
     FM301500 24011KT P6SM VCSH BKN025=

USA.gov is the U.S. government's official web portal to all federal, state and local government web resources and services.